Weather past 2 weeks in Jamestown, Saint Helena

Now
69 °F

Passing clouds.


Feels Like: 69 °F
Forecast: N/A
Wind: 20 mph from Southeast

Location: Saint Helena Island

Current Time: Nov 26, 2014 at 3:17:47 PM

Latest Report: Nov 26, 2014 at 2:00 PM


Visibility: 31 mi

Pressure: 30.05 "Hg

Humidity: 64%

Dew point: 57 °F

Location of JamestownLocation

Historic Weather in Jamestown — Graph

°F

Jamestown temperature yesterday

Maximum temperature yesterday: 69 °F (at 2:00 PM)
Minimum temperature yesterday: 61 °F (at 4:00 AM)
Average temperature yesterday: 63 °F

Past Weeks' High & Low Weather Summary

 TemperatureHumidityPressure
High69 °F (Nov 26, 2:00 PM)100% (Nov 24, 6:00 AM)30.13 "Hg (Nov 24, 6:00 AM)
Low58 °F (Nov 20, 4:00 AM)63% (Nov 14, 11:00 AM)29.98 "Hg (Nov 11, 3:00 PM)
Average62 °F84%30.06 "Hg
* Reported Nov 11 2:00 PM — Nov 26 2:00 PM, Jamestown, Weather by CustomWeather, © 2014

Note: Actual official high and low records may vary slightly from our data, if they occured in-between our weather recording intervals... More about our weather records

Advertising

Jamestown weather history for previous 24 hours

 ConditionsComfort  
Time TempWeatherWind HumidityBarometerVisibility
2:00 PM
Nov 26
69 °FPassing clouds.20 mph64%30.05 "Hg31 mi
1:00 PM69 °FScattered clouds.18 mph71%30.08 "Hg31 mi
12:00 PM68 °FPartly sunny.20 mph73%30.09 "Hg31 mi
11:00 AM64 °FOvercast.21 mph85%30.11 "Hg28 mi
10:00 AM67 °FPartly sunny.21 mph66%30.11 "Hg22 mi
9:00 AM65 °FScattered clouds.20 mph79%30.12 "Hg31 mi
8:00 AM63 °FMild.18 mph83%30.12 "HgN/A
7:00 AM62 °FCool.18 mph87%30.11 "HgN/A
6:00 AM61 °FCool.18 mph84%30.10 "HgN/A
5:00 AM61 °FCool.17 mph88%30.08 "HgN/A
4:00 AM61 °FCool.17 mph87%30.07 "HgN/A
3:00 AM61 °FCool.16 mph88%30.06 "HgN/A
2:00 AM60 °FCool.16 mph93%30.07 "HgN/A
1:00 AM61 °FCool.17 mph94%30.08 "HgN/A
12:00 AM61 °FCool.17 mph92%30.09 "HgN/A
11:00 PM
Nov 25
61 °FCool.17 mph93%30.10 "HgN/A
10:00 PM61 °FCool.17 mph95%30.09 "HgN/A
9:00 PM62 °FCool.15 mph95%30.08 "HgN/A
8:00 PM62 °FCool.16 mph91%30.07 "HgN/A
7:00 PM62 °FCool.16 mph90%30.05 "HgN/A
6:00 PM63 °FMild.16 mph84%30.03 "HgN/A
5:00 PM65 °FMild.16 mph81%30.01 "HgN/A
4:00 PM67 °FMild.16 mph71%30.02 "HgN/A
3:00 PM65 °FScattered clouds.17 mph76%30.04 "Hg28 mi
Weather by CustomWeather, © 2014

See weather overviewHow to use our weather pages